| time (UTC) | temp F | wind direction | speed MPH | gust MPH | rain 1hr in | rain 24hr in | rain mn in | humidity % | barometer mb |
| 20260510142007 | 50 | 239 | 3.0 | 9.0 | 0.00 | 0.27 | 0.00 | 81 | 979.8 |
| 20260510141507 | 49 | 329 | 3.0 | 9.0 | 0.00 | 0.27 | 0.00 | 81 | 979.7 |
| 20260510141007 | 48 | 341 | 4.0 | 5.0 | 0.00 | 0.27 | 0.00 | 81 | 979.6 |
| 20260510140507 | 48 | 300 | 3.0 | 6.0 | 0.00 | 0.27 | 0.00 | 82 | 979.6 |
| 20260510140007 | 46 | 286 | 3.0 | 6.0 | 0.00 | 0.27 | 0.00 | 84 | 979.3 |
| 20260510135008 | 47 | 299 | 2.0 | 5.0 | 0.00 | 0.27 | 0.00 | 84 | 979.4 |
| 20260510134507 | 48 | 306 | 3.0 | 6.0 | 0.00 | 0.27 | 0.00 | 82 | 979.4 |
| 20260510134007 | 48 | 338 | 3.0 | 6.0 | 0.00 | 0.27 | 0.00 | 82 | 979.4 |
| 20260510133508 | 47 | 276 | 2.0 | 6.0 | 0.00 | 0.27 | 0.00 | 84 | 978.9 |
| 20260510133007 | 48 | 311 | 3.0 | 6.0 | 0.00 | 0.27 | 0.00 | 84 | 978.9 |
| 20260510132507 | 48 | 264 | 3.0 | 6.0 | 0.00 | 0.27 | 0.00 | 83 | 978.8 |
| 20260510132007 | 47 | 348 | 3.0 | 5.0 | 0.00 | 0.27 | 0.00 | 84 | 978.8 |
| 20260510131507 | 47 | 317 | 3.0 | 5.0 | 0.00 | 0.27 | 0.00 | 85 | 978.8 |
| 20260510131007 | 46 | 230 | 2.0 | 8.0 | 0.00 | 0.27 | 0.00 | 86 | 978.7 |
| 20260510130508 | 46 | 262 | 4.0 | 8.0 | 0.00 | 0.27 | 0.00 | 87 | 978.7 |
| 20260510125008 | 44 | 280 | 3.0 | 6.0 | 0.00 | 0.27 | 0.00 | 88 | 978.3 |
| 20260510124507 | 45 | 309 | 3.0 | 6.0 | 0.00 | 0.27 | 0.00 | 87 | 978.3 |
| 20260510124007 | 43 | 316 | 2.0 | 7.0 | 0.00 | 0.27 | 0.00 | 91 | 978.3 |
| 20260510123507 | 44 | 308 | 3.0 | 7.0 | 0.00 | 0.27 | 0.00 | 88 | 978.4 |
| 20260510123007 | 43 | 290 | 3.0 | 7.0 | 0.00 | 0.27 | 0.00 | 91 | 978.4 |
| 20260510122507 | 44 | 293 | 4.0 | 7.0 | 0.00 | 0.27 | 0.00 | 89 | 978.2 |
| 20260510122007 | 44 | 234 | 3.0 | 5.0 | 0.00 | 0.27 | 0.00 | 89 | 978.2 |
| 20260510121507 | 44 | 256 | 3.0 | 3.0 | 0.00 | 0.27 | 0.00 | 90 | 978.2 |
| 20260510121007 | 43 | 292 | 1.0 | 3.0 | 0.00 | 0.27 | 0.00 | 90 | 977.9 |
| 20260510120508 | 43 | 5 | 2.0 | 5.0 | 0.00 | 0.27 | 0.00 | 91 | 977.9 |
| 20260510120007 | 42 | 2 | 2.0 | 5.0 | 0.00 | 0.27 | 0.00 | 92 | 977.7 |
| 20260510115509 | 42 | 315 | 2.0 | 6.0 | 0.00 | 0.27 | 0.00 | 91 | 977.7 |
| 20260510113507 | 40 | 180 | 3.0 | 6.0 | 0.00 | 0.27 | 0.00 | 95 | 977.2 |
| 20260510112507 | 39 | 62 | 2.0 | 7.0 | 0.00 | 0.27 | 0.00 | 98 | 977.1 |
| 20260510112007 | 39 | 295 | 2.0 | 6.0 | 0.00 | 0.27 | 0.00 | 99 | 977.1 |
| 20260510111506 | 38 | 338 | 2.0 | 6.0 | 0.00 | 0.27 | 0.00 | 99 | 977.1 |
| 20260510111007 | 38 | 303 | 1.0 | 6.0 | 0.00 | 0.27 | 0.00 | 99 | 976.8 |
| 20260510110006 | 38 | 311 | 2.0 | 6.0 | 0.00 | 0.27 | 0.00 | 99 | 976.7 |
| 20260510105506 | 38 | 263 | 2.0 | 6.0 | 0.00 | 0.27 | 0.00 | 99 | 976.7 |
| 20260510104507 | 37 | 339 | 1.0 | 3.0 | 0.00 | 0.27 | 0.00 | 99 | 976.4 |
| 20260510103008 | 37 | 282 | 2.0 | 3.0 | 0.00 | 0.27 | 0.00 | 99 | 976.4 |
| 20260510102508 | 36 | 281 | 1.0 | 3.0 | 0.00 | 0.27 | 0.00 | 99 | 976.1 |
| 20260510102009 | 36 | 236 | 1.0 | 2.0 | 0.00 | 0.27 | 0.00 | 99 | 976.1 |
| 20260510101508 | 36 | 264 | 0.0 | 2.0 | 0.00 | 0.27 | 0.00 | 99 | 976.1 |
| 20260510101009 | 37 | 116 | 0.0 | 2.0 | 0.00 | 0.27 | 0.00 | 99 | 976.1 |
| 20260510100509 | 37 | 248 | 0.0 | 2.0 | 0.00 | 0.27 | 0.00 | 99 | 976.1 |
| 20260510095509 | 37 | 267 | 1.0 | 5.0 | 0.00 | 0.27 | 0.00 | 99 | 975.8 |
| 20260510095009 | 37 | 294 | 2.0 | 5.0 | 0.00 | 0.27 | 0.00 | 99 | 975.6 |
| 20260510094509 | 36 | 303 | 1.0 | 3.0 | 0.00 | 0.27 | 0.00 | 99 | 975.6 |
| 20260510094008 | 36 | 304 | 2.0 | 3.0 | 0.00 | 0.27 | 0.00 | 99 | 975.6 |
| 20260510093508 | 36 | 203 | 2.0 | 3.0 | 0.00 | 0.27 | 0.00 | 99 | 975.7 |
| 20260510093008 | 37 | 315 | 2.0 | 3.0 | 0.00 | 0.27 | 0.00 | 99 | 975.7 |
| 20260510092008 | 37 | 217 | 1.0 | 5.0 | 0.00 | 0.27 | 0.00 | 99 | 975.4 |
| 20260510091508 | 37 | 305 | 0.0 | 6.0 | 0.00 | 0.27 | 0.00 | 99 | 975.4 |
| 20260510091008 | 37 | 66 | 1.0 | 6.0 | 0.00 | 0.27 | 0.00 | 99 | 975.4 |
| 20260510090509 | 37 | 302 | 3.0 | 6.0 | 0.00 | 0.27 | 0.00 | 99 | 975.4 |
| 20260510085508 | 37 | 147 | 2.0 | 5.0 | 0.00 | 0.27 | 0.00 | 99 | 975.1 |
| 20260510085009 | 37 | 292 | 2.0 | 5.0 | 0.00 | 0.27 | 0.00 | 99 | 974.9 |
| 20260510084508 | 37 | 36 | 2.0 | 6.0 | 0.00 | 0.27 | 0.00 | 99 | 974.9 |
| 20260510084008 | 37 | 284 | 2.0 | 6.0 | 0.00 | 0.27 | 0.00 | 99 | 974.9 |
| 20260510083509 | 36 | 266 | 2.0 | 6.0 | 0.00 | 0.27 | 0.00 | 99 | 974.9 |
| 20260510082508 | 36 | 126 | 1.0 | 6.0 | 0.00 | 0.27 | 0.00 | 99 | 974.6 |
| 20260510082008 | 37 | 26 | 1.0 | 3.0 | 0.00 | 0.27 | 0.00 | 99 | 974.6 |
| 20260510081008 | 37 | 15 | 2.0 | 5.0 | 0.00 | 0.27 | 0.00 | 99 | 974.8 |
| 20260510080009 | 37 | 275 | 2.0 | 6.0 | 0.00 | 0.27 | 0.00 | 99 | 974.6 |
| 20260510075009 | 37 | 235 | 1.0 | 3.0 | 0.00 | 0.27 | 0.00 | 99 | 974.5 |
| 20260510074508 | 37 | 141 | 2.0 | 3.0 | 0.00 | 0.27 | 0.00 | 99 | 974.5 |
| 20260510074008 | 37 | 8 | 2.0 | 5.0 | 0.00 | 0.27 | 0.00 | 99 | 974.5 |
| 20260510073509 | 37 | 74 | 1.0 | 5.0 | 0.00 | 0.27 | 0.00 | 99 | 974.5 |
| 20260510072509 | 37 | 260 | 3.0 | 6.0 | 0.00 | 0.27 | 0.00 | 99 | 974.5 |
| 20260510072008 | 37 | 257 | 2.0 | 6.0 | 0.00 | 0.27 | 0.00 | 99 | 974.5 |
| 20260510070508 | 38 | 222 | 1.0 | 3.0 | 0.00 | 0.27 | 0.00 | 99 | 974.0 |
| 20260510065509 | 38 | 285 | 1.0 | 3.0 | 0.00 | 0.27 | 0.00 | 99 | 974.0 |
| 20260510064508 | 38 | 247 | 2.0 | 6.0 | 0.00 | 0.27 | 0.00 | 99 | 973.9 |
| 20260510064008 | 38 | 260 | 3.0 | 6.0 | 0.00 | 0.27 | 0.00 | 98 | 973.9 |
| 20260510063008 | 39 | 230 | 2.0 | 5.0 | 0.00 | 0.27 | 0.00 | 98 | 973.7 |
| 20260510062008 | 39 | 292 | 2.0 | 6.0 | 0.00 | 0.27 | 0.00 | 98 | 973.7 |
| 20260510061508 | 39 | 270 | 1.0 | 5.0 | 0.00 | 0.27 | 0.00 | 97 | 973.7 |
| 20260510061009 | 39 | 126 | 2.0 | 5.0 | 0.00 | 0.27 | 0.00 | 97 | 973.7 |
| 20260510055508 | 39 | 285 | 3.0 | 6.0 | 0.00 | 0.27 | 0.00 | 96 | 973.6 |
| 20260510055008 | 39 | 270 | 3.0 | 6.0 | 0.00 | 0.27 | 0.00 | 96 | 973.3 |
| 20260510054508 | 39 | 249 | 2.0 | 5.0 | 0.00 | 0.27 | 0.00 | 96 | 973.3 |
| 20260510054008 | 39 | 301 | 2.0 | 5.0 | 0.00 | 0.27 | 0.00 | 96 | 973.3 |
| 20260510053008 | 39 | 214 | 1.0 | 7.0 | 0.00 | 0.27 | 0.00 | 96 | 973.3 |
| 20260510051008 | 40 | 349 | 1.0 | 3.0 | 0.00 | 0.27 | 0.00 | 96 | 972.9 |
| 20260510050509 | 40 | 158 | 0.0 | 6.0 | 0.00 | 0.27 | 0.00 | 96 | 972.9 |
| 20260510050008 | 40 | 46 | 3.0 | 6.0 | 0.00 | 0.27 | 0.00 | 96 | 972.7 |
| 20260510045509 | 40 | 218 | 1.0 | 5.0 | 0.00 | 0.27 | 0.00 | 96 | 972.7 |
| 20260510045008 | 40 | 285 | 0.0 | 5.0 | 0.00 | 0.27 | 0.00 | 96 | 972.4 |
| 20260510044509 | 41 | 127 | 0.0 | 3.0 | 0.00 | 0.27 | 0.00 | 95 | 972.4 |
| 20260510044008 | 41 | 172 | 1.0 | 3.0 | 0.00 | 0.27 | 0.00 | 94 | 972.4 |
| 20260510043508 | 41 | 246 | 2.0 | 5.0 | 0.00 | 0.27 | 0.00 | 95 | 972.4 |
| 20260510043008 | 41 | 234 | 2.0 | 6.0 | 0.00 | 0.27 | 0.00 | 95 | 972.4 |
| 20260510042509 | 41 | 77 | 3.0 | 6.0 | 0.00 | 0.27 | 0.00 | 95 | 972.0 |
| 20260510042008 | 41 | 214 | 2.0 | 5.0 | 0.00 | 0.27 | 0.00 | 96 | 972.0 |
| 20260510041508 | 42 | 160 | 0.0 | 5.0 | 0.00 | 0.27 | 0.00 | 96 | 972.0 |
| 20260510041008 | 42 | 255 | 1.0 | 5.0 | 0.00 | 0.27 | 0.00 | 96 | 971.9 |
| 20260510040509 | 42 | 146 | 2.0 | 6.0 | 0.00 | 0.27 | 0.00 | 97 | 971.9 |
| 20260510040008 | 42 | 262 | 1.0 | 6.0 | 0.00 | 0.27 | 0.00 | 98 | 971.8 |
| 20260510035508 | 42 | 270 | 2.0 | 6.0 | 0.00 | 0.27 | 0.27 | 98 | 971.8 |
| 20260510035008 | 42 | 264 | 1.0 | 6.0 | 0.00 | 0.27 | 0.27 | 98 | 972.0 |
| 20260510034508 | 42 | 294 | 3.0 | 6.0 | 0.00 | 0.27 | 0.27 | 99 | 972.0 |
| 20260510034008 | 43 | 202 | 2.0 | 7.0 | 0.00 | 0.27 | 0.27 | 99 | 972.0 |
| 20260510033509 | 43 | 216 | 2.0 | 7.0 | 0.00 | 0.27 | 0.27 | 99 | 971.7 |
| 20260510032508 | 43 | 275 | 2.0 | 8.0 | 0.00 | 0.27 | 0.27 | 99 | 971.8 |
| 20260510032009 | 43 | 260 | 3.0 | 8.0 | 0.00 | 0.27 | 0.27 | 99 | 971.8 |
| 20260510031508 | 43 | 227 | 2.0 | 5.0 | 0.00 | 0.27 | 0.27 | 99 | 971.8 |
| 20260510031008 | 43 | 242 | 1.0 | 5.0 | 0.00 | 0.27 | 0.27 | 99 | 971.7 |
| 20260510030508 | 43 | 265 | 2.0 | 5.0 | 0.00 | 0.27 | 0.27 | 99 | 971.7 |
| 20260510030008 | 43 | 163 | 1.0 | 5.0 | 0.00 | 0.27 | 0.27 | 99 | 971.6 |
| 20260510025508 | 43 | 292 | 2.0 | 6.0 | 0.00 | 0.27 | 0.27 | 99 | 971.6 |
| 20260510024509 | 43 | 253 | 1.0 | 5.0 | 0.00 | 0.27 | 0.27 | 99 | 971.3 |
| 20260510024008 | 44 | 193 | 1.0 | 5.0 | 0.00 | 0.27 | 0.27 | 99 | 971.3 |
| 20260510023509 | 44 | 235 | 0.0 | 2.0 | 0.00 | 0.27 | 0.27 | 99 | 971.2 |
| 20260510022508 | 44 | 203 | 1.0 | 5.0 | 0.00 | 0.27 | 0.27 | 99 | 971.1 |
| 20260510022008 | 44 | 210 | 2.0 | 3.0 | 0.00 | 0.27 | 0.27 | 99 | 971.1 |
| 20260510021008 | 44 | 209 | 0.0 | 2.0 | 0.00 | 0.27 | 0.27 | 99 | 970.7 |
| 20260510020508 | 44 | 194 | 0.0 | 2.0 | 0.00 | 0.27 | 0.27 | 99 | 970.7 |
| 20260510020008 | 45 | 226 | 1.0 | 2.0 | 0.00 | 0.27 | 0.27 | 99 | 970.7 |
| 20260510015508 | 45 | 201 | 0.0 | 2.0 | 0.00 | 0.27 | 0.27 | 99 | 970.7 |
| 20260510014508 | 46 | 225 | 1.0 | 3.0 | 0.00 | 0.27 | 0.27 | 99 | 970.5 |
| 20260510014008 | 46 | 204 | 0.0 | 3.0 | 0.00 | 0.27 | 0.27 | 99 | 970.5 |
| 20260510013008 | 46 | 269 | 1.0 | 2.0 | 0.00 | 0.27 | 0.27 | 99 | 970.2 |
| 20260510012508 | 46 | 228 | 1.0 | 2.0 | 0.00 | 0.27 | 0.27 | 99 | 969.7 |
| 20260510011508 | 47 | 202 | 2.0 | 2.0 | 0.00 | 0.27 | 0.27 | 99 | 969.7 |
| 20260510011008 | 48 | 202 | 0.0 | 1.0 | 0.00 | 0.27 | 0.27 | 99 | 969.7 |
| 20260510010508 | 48 | 182 | 0.0 | 3.0 | 0.00 | 0.27 | 0.27 | 99 | 969.7 |
| 20260510010008 | 48 | 219 | 1.0 | 5.0 | 0.01 | 0.27 | 0.27 | 99 | 969.5 |
| 20260510005508 | 49 | 285 | 2.0 | 5.0 | 0.01 | 0.27 | 0.27 | 99 | 969.5 |
| 20260510005008 | 49 | 177 | 1.0 | 2.0 | 0.01 | 0.27 | 0.27 | 99 | 969.2 |
| 20260510004507 | 50 | 270 | 0.0 | 3.0 | 0.01 | 0.27 | 0.27 | 99 | 969.2 |
| 20260510004008 | 50 | 211 | 1.0 | 3.0 | 0.01 | 0.27 | 0.27 | 99 | 969.2 |
| 20260510003508 | 50 | 192 | 0.0 | 1.0 | 0.01 | 0.27 | 0.27 | 99 | 969.1 |
| 20260510003008 | 50 | 189 | 0.0 | 2.0 | 0.01 | 0.27 | 0.27 | 99 | 969.1 |
| 20260510002508 | 51 | 276 | 1.0 | 7.0 | 0.01 | 0.27 | 0.27 | 99 | 968.9 |
| 20260510001508 | 51 | 274 | 1.0 | 7.0 | 0.01 | 0.27 | 0.27 | 99 | 968.9 |
| 20260510001008 | 51 | 350 | 1.0 | 6.0 | 0.01 | 0.27 | 0.27 | 99 | 968.5 |
| 20260510000008 | 51 | 189 | 3.0 | 6.0 | 0.00 | 0.26 | 0.26 | 99 | 968.2 |
| 20260509235508 | 51 | 181 | 2.0 | 5.0 | 0.00 | 0.26 | 0.26 | 99 | 968.2 |
| 20260509235008 | 51 | 174 | 3.0 | 6.0 | 0.00 | 0.26 | 0.26 | 99 | 968.1 |
| 20260509234008 | 51 | 169 | 3.0 | 6.0 | 0.00 | 0.26 | 0.26 | 99 | 968.1 |
| 20260509233508 | 51 | 181 | 2.0 | 6.0 | 0.00 | 0.26 | 0.26 | 99 | 968.0 |
| 20260509232007 | 51 | 174 | 3.0 | 6.0 | 0.00 | 0.26 | 0.26 | 99 | 968.0 |
| 20260509231508 | 51 | 148 | 4.0 | 7.0 | 0.01 | 0.26 | 0.26 | 99 | 968.0 |
| 20260509231008 | 51 | 152 | 3.0 | 7.0 | 0.02 | 0.26 | 0.26 | 99 | 968.0 |
| 20260509230508 | 51 | 186 | 5.0 | 6.0 | 0.03 | 0.26 | 0.26 | 99 | 968.0 |
| 20260509230008 | 51 | 179 | 2.0 | 5.0 | 0.05 | 0.26 | 0.26 | 99 | 967.7 |
| 20260509225008 | 51 | 163 | 2.0 | 5.0 | 0.07 | 0.26 | 0.26 | 99 | 967.6 |
| 20260509224508 | 51 | 178 | 3.0 | 7.0 | 0.08 | 0.26 | 0.26 | 99 | 967.6 |
| 20260509224009 | 51 | 189 | 4.0 | 7.0 | 0.11 | 0.26 | 0.26 | 99 | 967.6 |
| 20260509223508 | 51 | 184 | 3.0 | 7.0 | 0.16 | 0.26 | 0.26 | 99 | 967.6 |
| 20260509223008 | 51 | 148 | 3.0 | 6.0 | 0.18 | 0.26 | 0.26 | 99 | 967.6 |
| 20260509222508 | 51 | 197 | 3.0 | 7.0 | 0.21 | 0.26 | 0.26 | 99 | 967.9 |
| 20260509222008 | 51 | 232 | 3.0 | 7.0 | 0.23 | 0.26 | 0.26 | 99 | 967.9 |
| 20260509221008 | 51 | 171 | 3.0 | 6.0 | 0.24 | 0.24 | 0.24 | 99 | 968.2 |
| 20260509220008 | 51 | 188 | 3.0 | 8.0 | 0.21 | 0.21 | 0.21 | 99 | 968.4 |
| 20260509215507 | 52 | 267 | 5.0 | 8.0 | 0.19 | 0.19 | 0.19 | 99 | 968.4 |
| 20260509215008 | 52 | 243 | 2.0 | 7.0 | 0.19 | 0.19 | 0.19 | 99 | 968.3 |
| 20260509214008 | 52 | 161 | 6.0 | 16.0 | 0.15 | 0.15 | 0.15 | 99 | 968.3 |
| 20260509213508 | 52 | 150 | 9.0 | 16.0 | 0.10 | 0.10 | 0.10 | 99 | 967.6 |
| 20260509213008 | 53 | 168 | 5.0 | 10.0 | 0.08 | 0.08 | 0.08 | 99 | 967.6 |
| 20260509212508 | 54 | 236 | 7.0 | 10.0 | 0.05 | 0.05 | 0.05 | 98 | 967.2 |
| 20260509212008 | 54 | 149 | 5.0 | 10.0 | 0.03 | 0.03 | 0.03 | 97 | 967.2 |
| 20260509211508 | 55 | 188 | 7.0 | 12.0 | 0.01 | 0.01 | 0.01 | 94 | 967.2 |
| 20260509210507 | 56 | 158 | 8.0 | 12.0 | 0.00 | 0.00 | 0.00 | 89 | 967.0 |
| 20260509210008 | 57 | 186 | 8.0 | 14.0 | 0.00 | 0.00 | 0.00 | 85 | 966.7 |
| 20260509205508 | 58 | 174 | 7.0 | 14.0 | 0.00 | 0.00 | 0.00 | 83 | 966.7 |
| 20260509205008 | 59 | 156 | 9.0 | 12.0 | 0.00 | 0.00 | 0.00 | 81 | 966.4 |
| 20260509204508 | 59 | 171 | 9.0 | 12.0 | 0.00 | 0.00 | 0.00 | 80 | 966.4 |
| 20260509203508 | 60 | 167 | 7.0 | 13.0 | 0.00 | 0.00 | 0.00 | 80 | 966.4 |
| 20260509203008 | 60 | 150 | 9.0 | 14.0 | 0.00 | 0.00 | 0.00 | 79 | 966.4 |
| 20260509202508 | 61 | 124 | 8.0 | 14.0 | 0.00 | 0.00 | 0.00 | 78 | 966.6 |
| 20260509202008 | 61 | 170 | 7.0 | 16.0 | 0.00 | 0.00 | 0.00 | 77 | 966.6 |
| 20260509201508 | 61 | 130 | 10.0 | 16.0 | 0.00 | 0.00 | 0.00 | 77 | 966.7 |
| 20260509201008 | 62 | 145 | 7.0 | 12.0 | 0.00 | 0.00 | 0.00 | 77 | 966.8 |
| 20260509195507 | 62 | 145 | 6.0 | 10.0 | 0.00 | 0.00 | 0.00 | 76 | 967.2 |
| 20260509194507 | 61 | 167 | 7.0 | 10.0 | 0.00 | 0.00 | 0.00 | 76 | 967.2 |
| 20260509194008 | 61 | 124 | 6.0 | 10.0 | 0.00 | 0.00 | 0.00 | 75 | 967.2 |
| 20260509193507 | 62 | 139 | 7.0 | 10.0 | 0.00 | 0.00 | 0.00 | 75 | 967.3 |
| 20260509193007 | 61 | 171 | 7.0 | 10.0 | 0.00 | 0.00 | 0.00 | 74 | 967.3 |
| 20260509192008 | 60 | 158 | 6.0 | 9.0 | 0.00 | 0.00 | 0.00 | 76 | 967.4 |
| 20260509191508 | 60 | 58 | 6.0 | 9.0 | 0.00 | 0.00 | 0.00 | 76 | 967.4 |
| 20260509191007 | 59 | 164 | 6.0 | 9.0 | 0.00 | 0.00 | 0.00 | 77 | 967.5 |
| 20260509190507 | 59 | 180 | 6.0 | 9.0 | 0.00 | 0.00 | 0.00 | 77 | 967.5 |
| 20260509190007 | 60 | 132 | 6.0 | 8.0 | 0.00 | 0.00 | 0.00 | 77 | 967.8 |
| 20260509185007 | 60 | 180 | 6.0 | 8.0 | 0.00 | 0.00 | 0.00 | 78 | 967.9 |
| 20260509184507 | 60 | 171 | 4.0 | 8.0 | 0.00 | 0.00 | 0.00 | 77 | 967.9 |
| 20260509184008 | 59 | 157 | 6.0 | 8.0 | 0.00 | 0.00 | 0.00 | 77 | 967.9 |
| 20260509183507 | 59 | 152 | 5.0 | 8.0 | 0.00 | 0.00 | 0.00 | 77 | 968.1 |
| 20260509183007 | 59 | 158 | 5.0 | 9.0 | 0.00 | 0.00 | 0.00 | 77 | 968.1 |
| 20260509182507 | 59 | 188 | 6.0 | 9.0 | 0.00 | 0.00 | 0.00 | 77 | 968.2 |
| 20260509182007 | 59 | 136 | 6.0 | 9.0 | 0.00 | 0.00 | 0.00 | 77 | 968.2 |
| 20260509181507 | 60 | 138 | 7.0 | 10.0 | 0.00 | 0.00 | 0.00 | 78 | 968.3 |
| 20260509181008 | 60 | 167 | 7.0 | 10.0 | 0.00 | 0.00 | 0.00 | 77 | 968.5 |
| 20260509180507 | 61 | 145 | 6.0 | 10.0 | 0.00 | 0.00 | 0.00 | 75 | 968.5 |
| 20260509180007 | 62 | 142 | 8.0 | 14.0 | 0.00 | 0.00 | 0.00 | 74 | 968.8 |
| 20260509175007 | 61 | 171 | 10.0 | 15.0 | 0.00 | 0.00 | 0.00 | 74 | 968.9 |
| 20260509174507 | 62 | 130 | 9.0 | 15.0 | 0.00 | 0.00 | 0.00 | 73 | 968.9 |
| 20260509174007 | 62 | 180 | 7.0 | 10.0 | 0.00 | 0.00 | 0.00 | 74 | 968.9 |
| 20260509173507 | 62 | 137 | 8.0 | 10.0 | 0.00 | 0.00 | 0.00 | 74 | 969.0 |
| 20260509173008 | 62 | 165 | 9.0 | 10.0 | 0.00 | 0.00 | 0.00 | 72 | 969.0 |
| 20260509172507 | 63 | 138 | 6.0 | 12.0 | 0.00 | 0.00 | 0.00 | 74 | 969.3 |
| 20260509172007 | 62 | 148 | 9.0 | 13.0 | 0.00 | 0.00 | 0.00 | 74 | 969.3 |
| 20260509171507 | 63 | 142 | 9.0 | 13.0 | 0.00 | 0.00 | 0.00 | 74 | 969.3 |
| 20260509171008 | 64 | 147 | 6.0 | 12.0 | 0.00 | 0.00 | 0.00 | 72 | 969.4 |
| 20260509165507 | 61 | 168 | 9.0 | 14.0 | 0.00 | 0.00 | 0.00 | 75 | 969.7 |
| 20260509165007 | 62 | 178 | 9.0 | 12.0 | 0.00 | 0.00 | 0.00 | 73 | 970.1 |
| 20260509164508 | 62 | 225 | 5.0 | 8.0 | 0.00 | 0.00 | 0.00 | 74 | 970.1 |
| 20260509164008 | 62 | 204 | 6.0 | 8.0 | 0.00 | 0.00 | 0.00 | 74 | 970.1 |
| 20260509163508 | 61 | 191 | 6.0 | 10.0 | 0.00 | 0.00 | 0.00 | 74 | 970.3 |
| 20260509163007 | 60 | 138 | 6.0 | 10.0 | 0.00 | 0.00 | 0.00 | 75 | 970.3 |
| 20260509162507 | 60 | 169 | 8.0 | 10.0 | 0.00 | 0.00 | 0.00 | 74 | 970.4 |
| 20260509162007 | 61 | 175 | 6.0 | 10.0 | 0.00 | 0.00 | 0.00 | 73 | 970.4 |
| 20260509161508 | 61 | 177 | 6.0 | 10.0 | 0.00 | 0.00 | 0.00 | 74 | 970.4 |
| 20260509161007 | 62 | 190 | 5.0 | 10.0 | 0.00 | 0.00 | 0.00 | 72 | 970.4 |
| 20260509160508 | 63 | 151 | 5.0 | 10.0 | 0.00 | 0.00 | 0.00 | 73 | 970.4 |
| 20260509160008 | 63 | 207 | 5.0 | 10.0 | 0.00 | 0.00 | 0.00 | 74 | 970.6 |
| 20260509155508 | 62 | 186 | 4.0 | 8.0 | 0.00 | 0.00 | 0.00 | 73 | 970.6 |
| 20260509155007 | 62 | 156 | 5.0 | 9.0 | 0.00 | 0.00 | 0.00 | 74 | 970.8 |
| 20260509154007 | 60 | 186 | 6.0 | 9.0 | 0.00 | 0.00 | 0.00 | 76 | 970.8 |
| 20260509153507 | 60 | 195 | 4.0 | 9.0 | 0.00 | 0.00 | 0.00 | 75 | 970.8 |
| 20260509153007 | 59 | 154 | 6.0 | 9.0 | 0.00 | 0.00 | 0.00 | 75 | 970.8 |
| 20260509152507 | 61 | 168 | 6.0 | 9.0 | 0.00 | 0.00 | 0.00 | 72 | 971.0 |
| 20260509152007 | 62 | 165 | 5.0 | 10.0 | 0.00 | 0.00 | 0.00 | 72 | 971.0 |
| 20260509151507 | 60 | 160 | 8.0 | 10.0 | 0.00 | 0.00 | 0.00 | 72 | 971.0 |
| 20260509150508 | 62 | 156 | 5.0 | 10.0 | 0.00 | 0.00 | 0.00 | 71 | 970.8 |
| 20260509150008 | 61 | 145 | 7.0 | 10.0 | 0.00 | 0.00 | 0.00 | 71 | 970.9 |
| 20260509145507 | 62 | 158 | 6.0 | 9.0 | 0.00 | 0.00 | 0.00 | 71 | 970.9 |
| 20260509145007 | 61 | 160 | 6.0 | 9.0 | 0.00 | 0.00 | 0.00 | 73 | 971.0 |
| 20260509144507 | 59 | 177 | 8.0 | 9.0 | 0.00 | 0.00 | 0.00 | 75 | 971.0 |
| 20260509143007 | 59 | 170 | 6.0 | 9.0 | 0.00 | 0.00 | 0.00 | 75 | 971.1 |
| 20260509142507 | 58 | 65 | 7.0 | 10.0 | 0.00 | 0.00 | 0.00 | 75 | 971.3 |